Погода в Брянске

Россия / Брянская область     53°14′35″N   34°21′49″E
темп.,
°C
ветер,
м/с
пор.,
м/с
влажн.,
%
обл.,
%
осадки,
мм/ч
давл.,
гПа
погр.,
м
24 июля, сб
сб2400:00+16зсз257879 0.0 1012101
03:00+14сз22885 0.0 101340
06:00+14ссз248717 0.0 1013112
09:00+19с246157 0.0 1014514
12:00+21ссв234824 0.0 10141372
15:00+22с444791 0.0 10151442
18:00+22сз2359100 0.0 1015207
21:00+17всв3662100 0.0 1017172
25 июля, вс
вс2500:00+17в2462100 0.0 101899
03:00+16вюв236299 0.0 101976
06:00+15вюв236593 0.0 102063
09:00+18вюв34597 0.0 1021300
12:00+23юв334751 0.0 10211235
15:00+24ююз224467 0.0 10211806
18:00+23юв235560 0.0 1021576
21:00+19ююв237058 0.0 102261
26 июля, пн
пн2600:00+16юв227591 0.0 102330
03:00+15ююв22727 0.1 102331
06:00+14ююв228011 0.4 102435
09:00+18ююв357298 0.4 1024184
12:00+17вюв377077 0.1 1025183
15:00+25юв454915 0.1 10231231
18:00+21юв1166100 0.0 102389
21:00+19юв366932 0.1 1023115
27 июля, вт
вт2700:00+16юв23711 0.3 102433
03:00+15ююв337350 0.4 102446
06:00+15ююв227720 0.1 102432
09:00+20ююв235886 0.1 1024322
12:00+24ю234792 0.0 1023986
15:00+27юз234337 0.0 10222039
18:00+25юв235713 0.0 1021576
21:00+22ююв2262100 0.0 102137
28 июля, ср
ср2800:00+20ююв346412 0.0 102173
03:00+17ююв236954 0.0 102045
06:00+16ююв237716 0.0 102054
09:00+23ю36545 0.0 1018437
12:00+27ю5740100 0.0 10161705
15:00+28ююз6840100 0.0 10152449
18:00+18ююв2792100 0.9 1015207
21:00+18юв41291100 1.0 1012308